PROFILE

 METAR AND TAF INFORMATION
ADDS - METARS form results

(1311 UTC 18 October 2018)
http://aviationweather.gov/metar/data/
 
BGSF 181250Z AUTO 04005KT 360V080 9999NDV NCD M13/M20 Q1004
TAF BGSF 181101Z 1812/1918 06010KT 9999 FEW200 

 AIRPORT MAP

 RUNWAY INFORMATION
Runway 09 Runway length 9219 ft Runway width 197 ft
Runway elevation 100 ft Runway displaced threshold 0 ft Runway heading 62
Runway 27 Runway length 9219 ft Runway width 197 ft
Runway elevation 165 ft Runway displaced threshold 0 ft Runway heading 242

 AIRPORT FREQUENCIES
Type A/D Name APP/DEP Frequency 126.2 MHZ
Type RDO Name RDO Frequency 121.3 MHZ
Type TWR Name TWR Frequency 118.3 MHZ

 AIRPORT NEAR NAVIGATION AIDS
Type NDB Name Sondre Stromfjord Frequency 382 KHZ